{"data":{"norad_id":48300,"intl_designator":"2021-036AA","name":"STARLINK-2538","alt_names":[],"object_type":"PAYLOAD","status":"ACTIVE","operator":null,"country":"US","launch_date":"2021-04-29","launch_site_code":"AFETR","launch_vehicle":null,"mission":null,"orbit_class":"UNKNOWN","rcs_meters":null,"size_class":null,"mass_kg":null,"dimensions":null,"purposes":["comms"],"wikipedia_slug":null,"has_3d_model":false,"image_url":null,"decayed_at":null,"tle_current":{"epoch":"2026-09-19T17:35:00.219552Z","epoch_age_seconds":100036,"freshness":"FRESH","line1":"1 48300U 21036AA  26262.73264143 -.00003162  00000+0 -90151-4 0  9998","line2":"2 48300  53.1609 265.1225 0000930  72.7122 287.3981 15.31708504297962","mean_motion":15.31708504,"eccentricity":9.3e-5,"inclination_deg":53.1609,"raan_deg":265.1225,"arg_perigee_deg":72.7122,"mean_anomaly_deg":287.3981,"bstar":-9.0151e-5,"rev_number":29796,"period_min":94.012666002669,"perigee_km":470.07770215843,"apogee_km":471.35158856446,"semimajor_km":6848.8516453614,"source":"CELESTRAK","updated_at":"2026-09-20T09:00:38.931764Z"}}}